Location: Unspecified
(49.9820°N, 20.4363°E)
Time: 16:12:11
(UTC+02:00)

ISS - Pass Details

Date: 24 May 2018
Orbit: 402 x 408 km, 51.6° (Epoch: 18 September)

Event Time Altitude Azimuth Distance (km) Brightness Sun altitude
Rises 22:47:12 0° 266° (W) 2,320 0.3 -15.2°
Reaches altitude 10° 22:49:17 10° 269° (W) 1,460 -0.7 -15.4°
Maximum altitude 22:52:33 66° 353° (N) 443 -3.5 -15.6°
Drops below altitude 10° 22:55:48 10° 77° (ENE) 1,460 -1.1 -15.8°
Enters shadow 22:57:47 - 80° (E) 2,273 -0.2 -15.9°
